Overview Statistics Trail Chart Weather Telemetry Raw packets
 

This is the latest recevied weather packets stored in our database for station/object N0QV. If no packets are shown the sender has not sent any weather packets the latest 10 day(s).

<< 8 9 10 11 12 13 14 >>
Time Temp. Humidity Pressure Rain* Wind** Luminosity Snow
1788613192 21.11° C 93% 1016.4 hPa 0 mm - 23 W/m² -
1788612887 21.67° C 93% 1016.6 hPa 0 mm - 21 W/m² -
1788612582 21.11° C 93% 1016.6 hPa 0 mm - 20 W/m² -
1788612279 21.11° C 93% 1016.9 hPa 0 mm - 18 W/m² -
1788611974 21.11° C 93% 1016.5 hPa 0 mm - 13 W/m² -
1788611671 21.11° C 93% 1016.3 hPa 0 mm - 10 W/m² -
1788611365 21.11° C 93% 1016.1 hPa 0 mm - 10 W/m² -
1788611065 21.11° C 92% 1016.1 hPa 0 mm - 10 W/m² -
1788610761 21.11° C 92% 1015.6 hPa 0 mm - 9 W/m² -
1788610456 21.11° C 92% 1015.3 hPa 0 mm - 9 W/m² -
1788610155 21.11° C 92% 1015.1 hPa 0 mm - 9 W/m² -
1788609856 21.11° C 92% 1015.5 hPa 0 mm - 7 W/m² -
1788609550 21.11° C 92% 1015.2 hPa 0 mm - 5 W/m² -
1788609249 21.11° C 92% 1015.3 hPa 0 mm - 4 W/m² -
1788608945 21.11° C 92% 1015.4 hPa 0 mm - 3 W/m² -
1788608644 21.11° C 92% 1015.6 hPa 0 mm - 4 W/m² -
1788608343 21.11° C 92% 1015.3 hPa 0 mm - 2 W/m² -
1788608039 21.11° C 92% 1015.4 hPa 0 mm - 0 W/m² -
1788607734 21.11° C 92% 1015.4 hPa 0 mm - 0 W/m² -
1788607429 21.11° C 92% 1015.4 hPa 0 mm - 0 W/m² -
1788607125 21.11° C 92% 1015.5 hPa 0 mm - 0 W/m² -
1788606825 21.11° C 92% 1015.5 hPa 0 mm - 0 W/m² -
1788606524 21.11° C 92% 1015.2 hPa 0 mm - 0 W/m² -
1788606224 21.11° C 92% 1015.1 hPa 0 mm - 0 W/m² -
1788605919 21.11° C 92% 1015.1 hPa 0 mm - 0 W/m² -

* Rain latest hour (hover to see other rain measurements)
** Current wind speed in m/s (hover to see current wind gust speed)